EN

Hourly Weather Abadzekhskaya

Today, 26 November, Thursday

Time Temperature Precipitation Wind Pressure Humidity
00:00 +1°C° 0 mm 2 mps 715 mmHg 82%
01:00 +1°C° 0.1 mm 2 mps 715 mmHg 83%
02:00 +1°C° 0.1 mm 2 mps 715 mmHg 84%
03:00 +1°C° 0 mm 2 mps 715 mmHg 84%
04:00 +1°C° 0.4 mm 2 mps 715 mmHg 83%
05:00 +1°C° 0.4 mm 2 mps 715 mmHg 83%
06:00 +1°C° 0.4 mm 2 mps 715 mmHg 83%
07:00 +1°C° 1 mm 2 mps 715 mmHg 86%
08:00 +1°C° 1 mm 2 mps 715 mmHg 89%
09:00 +2°C° 0 mm 1 mps 715 mmHg 91%
10:00 +3°C° 0.3 mm 1 mps 715 mmHg 91%
11:00 +3°C° 0.3 mm 1 mps 715 mmHg 90%
12:00 +4°C° 0.3 mm 1 mps 715 mmHg 90%
13:00 +4°C° 0 mm 1 mps 715 mmHg 89%
14:00 +4°C° 0 mm 1 mps 715 mmHg 89%
15:00 +3°C° 0 mm 2 mps 716 mmHg 87%
16:00 +3°C° 0 mm 1 mps 716 mmHg 88%
17:00 +3°C° 0 mm 1 mps 716 mmHg 89%
18:00 +3°C° 0 mm 1 mps 716 mmHg 89%
19:00 +2°C° 0 mm 1 mps 716 mmHg 89%
20:00 +1°C° 0 mm 0 mps 717 mmHg 89%
21:00 +1°C° 0 mm 0 mps 717 mmHg 89%
22:00 0°C° 0 mm 0 mps 717 mmHg 89%
23:00 0°C° 0 mm 0 mps 717 mmHg 89%

Tomorrow, 27 November, Friday

Time Temperature Precipitation Wind Pressure Humidity
00:00 -1°C° 0 mm 0 mps 718 mmHg 88%
01:00 0°C° 0 mm 1 mps 718 mmHg 87%
02:00 0°C° 0 mm 1 mps 718 mmHg 86%
03:00 0°C° 0 mm 1 mps 718 mmHg 85%
04:00 0°C° 0 mm 1 mps 718 mmHg 84%
05:00 0°C° 0 mm 1 mps 718 mmHg 82%
06:00 0°C° 0 mm 1 mps 718 mmHg 80%
07:00 +1°C° 0 mm 1 mps 718 mmHg 76%
08:00 +2°C° 0 mm 1 mps 718 mmHg 72%
09:00 +3°C° 0 mm 1 mps 719 mmHg 68%
10:00 +4°C° 0 mm 1 mps 719 mmHg 63%
11:00 +6°C° 0 mm 1 mps 719 mmHg 59%
12:00 +7°C° 0 mm 0 mps 719 mmHg 55%
13:00 +7°C° 0 mm 0 mps 719 mmHg 57%
14:00 +6°C° 0 mm 0 mps 718 mmHg 60%
15:00 +6°C° 0 mm 0 mps 718 mmHg 62%
16:00 +6°C° 0 mm 1 mps 718 mmHg 67%
17:00 +5°C° 0 mm 1 mps 718 mmHg 71%
18:00 +3°C° 0 mm 1 mps 718 mmHg 75%
19:00 +3°C° 0 mm 1 mps 717 mmHg 74%
20:00 +3°C° 0 mm 1 mps 717 mmHg 73%
21:00 +3°C° 0 mm 1 mps 717 mmHg 73%
22:00 +3°C° 0 mm 1 mps 717 mmHg 72%
23:00 +3°C° 0 mm 1 mps 717 mmHg 70%

Day after tomorrow, 28 November, Saturday

Time Temperature Precipitation Wind Pressure Humidity
00:00 +3°C° 0 mm 1 mps 717 mmHg 69%
01:00 +3°C° 0 mm 1 mps 717 mmHg 69%
02:00 +3°C° 0 mm 1 mps 717 mmHg 68%
03:00 +3°C° 0 mm 1 mps 717 mmHg 67%
04:00 +3°C° 0 mm 1 mps 716 mmHg 66%
05:00 +3°C° 0 mm 1 mps 716 mmHg 65%
06:00 +3°C° 0 mm 1 mps 716 mmHg 64%
07:00 +4°C° 0 mm 1 mps 716 mmHg 62%
08:00 +5°C° 0 mm 1 mps 716 mmHg 61%
09:00 +5°C° 0 mm 1 mps 716 mmHg 59%
10:00 +7°C° 0 mm 1 mps 716 mmHg 55%
11:00 +9°C° 0 mm 0 mps 716 mmHg 51%
12:00 +11°C° 0 mm 0 mps 716 mmHg 47%
13:00 +10°C° 0 mm 0 mps 716 mmHg 51%
14:00 +10°C° 0 mm 0 mps 716 mmHg 54%
15:00 +11°C° 0 mm 1 mps 715 mmHg 58%
16:00 +9°C° 0 mm 1 mps 715 mmHg 62%
17:00 +8°C° 0 mm 1 mps 715 mmHg 65%
18:00 +6°C° 0 mm 1 mps 715 mmHg 69%
19:00 +6°C° 0 mm 1 mps 715 mmHg 67%
20:00 +6°C° 0 mm 1 mps 715 mmHg 65%
21:00 +5°C° 0 mm 1 mps 715 mmHg 64%
22:00 +5°C° 0 mm 1 mps 715 mmHg 62%
23:00 +5°C° 0 mm 1 mps 715 mmHg 59%

29 November, Sunday

Time Temperature Precipitation Wind Pressure Humidity
00:00 +5°C° 0 mm 1 mps 715 mmHg 57%
01:00 +5°C° 0 mm 1 mps 715 mmHg 56%
02:00 +5°C° 0 mm 1 mps 715 mmHg 54%
03:00 +5°C° 0 mm 1 mps 716 mmHg 52%
04:00 +5°C° 0 mm 1 mps 715 mmHg 52%
05:00 +4°C° 0 mm 1 mps 715 mmHg 51%
06:00 +4°C° 0 mm 1 mps 715 mmHg 50%
07:00 +5°C° 0 mm 1 mps 716 mmHg 49%
08:00 +6°C° 0 mm 1 mps 716 mmHg 49%
09:00 +6°C° 0 mm 1 mps 716 mmHg 48%
10:00 +8°C° 0 mm 1 mps 716 mmHg 45%
11:00 +10°C° 0 mm 1 mps 716 mmHg 42%
12:00 +12°C° 0 mm 1 mps 716 mmHg 40%
13:00 +12°C° 0 mm 1 mps 716 mmHg 43%
14:00 +12°C° 0 mm 1 mps 716 mmHg 46%
15:00 +11°C° 0 mm 1 mps 716 mmHg 50%
16:00 +10°C° 0 mm 1 mps 716 mmHg 54%
17:00 +8°C° 0 mm 1 mps 716 mmHg 59%
18:00 +6°C° 0 mm 1 mps 716 mmHg 63%
19:00 +6°C° 0 mm 1 mps 716 mmHg 62%
20:00 +6°C° 0 mm 1 mps 716 mmHg 61%
21:00 +5°C° 0 mm 1 mps 716 mmHg 60%
22:00 +5°C° 0 mm 1 mps 716 mmHg 59%
23:00 +5°C° 0 mm 1 mps 716 mmHg 57%

30 November, Monday

Time Temperature Precipitation Wind Pressure Humidity
00:00 +5°C° 0 mm 1 mps 715 mmHg 55%
01:00 +5°C° 0 mm 1 mps 715 mmHg 53%
02:00 +5°C° 0 mm 1 mps 715 mmHg 52%
03:00 +4°C° 0 mm 1 mps 715 mmHg 50%
04:00 +4°C° 0 mm 1 mps 715 mmHg 49%
05:00 +4°C° 0 mm 1 mps 715 mmHg 49%
06:00 +4°C° 0 mm 1 mps 714 mmHg 48%
07:00 +4°C° 0 mm 1 mps 714 mmHg 47%
08:00 +5°C° 0 mm 1 mps 714 mmHg 47%
09:00 +6°C° 0 mm 1 mps 714 mmHg 47%
10:00 +7°C° 0 mm 1 mps 714 mmHg 45%
11:00 +9°C° 0 mm 1 mps 714 mmHg 43%
12:00 +10°C° 0 mm 1 mps 714 mmHg 41%
13:00 +10°C° 0 mm 1 mps 714 mmHg 44%
14:00 +10°C° 0 mm 1 mps 713 mmHg 48%
15:00 +10°C° 0 mm 1 mps 713 mmHg 52%
16:00 +8°C° 0 mm 1 mps 713 mmHg 57%
17:00 +6°C° 0 mm 1 mps 713 mmHg 62%
18:00 +4°C° 0 mm 2 mps 713 mmHg 68%
19:00 +4°C° 0 mm 2 mps 712 mmHg 67%
20:00 +3°C° 0 mm 2 mps 712 mmHg 66%
21:00 +3°C° 0 mm 2 mps 712 mmHg 66%
22:00 +3°C° 0 mm 2 mps 712 mmHg 66%
23:00 +3°C° 0 mm 2 mps 712 mmHg 66%

1 December, Tuesday

Time Temperature Precipitation Wind Pressure Humidity
00:00 +3°C° 0 mm 2 mps 712 mmHg 66%
01:00 +3°C° 0 mm 2 mps 712 mmHg 65%
02:00 +2°C° 0 mm 2 mps 712 mmHg 65%
03:00 +2°C° 0 mm 2 mps 712 mmHg 64%
04:00 +2°C° 0 mm 2 mps 712 mmHg 63%
05:00 +2°C° 0 mm 2 mps 712 mmHg 63%
06:00 +2°C° 0 mm 2 mps 712 mmHg 62%
07:00 +3°C° 0 mm 2 mps 712 mmHg 60%
08:00 +3°C° 0 mm 2 mps 713 mmHg 59%
09:00 +4°C° 0 mm 2 mps 713 mmHg 57%
10:00 +6°C° 0 mm 2 mps 713 mmHg 53%
11:00 +8°C° 0 mm 1 mps 713 mmHg 49%
12:00 +10°C° 0 mm 1 mps 713 mmHg 45%
13:00 +9°C° 0 mm 2 mps 713 mmHg 49%
14:00 +9°C° 0 mm 2 mps 713 mmHg 52%
15:00 +8°C° 0 mm 2 mps 713 mmHg 55%
16:00 +7°C° 0 mm 2 mps 713 mmHg 60%
17:00 +6°C° 0 mm 2 mps 713 mmHg 64%
18:00 +4°C° 0 mm 2 mps 713 mmHg 69%
19:00 +4°C° 0 mm 2 mps 713 mmHg 69%
20:00 +4°C° 0 mm 2 mps 713 mmHg 69%
21:00 +4°C° 0 mm 2 mps 713 mmHg 68%
22:00 +5°C° 0 mm 1 mps 713 mmHg 68%
23:00 +4°C° 0 mm 1 mps 713 mmHg 67%
Show more